Weather History for Franklin, PA

Change the Weather History Date:

Monday, January 21, 2013

  Actual Average Record
Temperature  
Mean Temperature 14 °F -  
Max Temperature 21 °F 32 °F 62 °F (1951)
Min Temperature 8 °F 15 °F -16 °F (1984)
Degree Days  
Heating Degree Days 50    
Moisture  
Dew Point 7 °F    
Average Humidity 67    
Maximum Humidity 79    
Minimum Humidity 58    
Precipitation  
Precipitation 0.00 in - - ()
Sea Level Pressure  
Sea Level Pressure 29.94 in    
Wind  
Wind Speed 10 mph (WSW)    
Max Wind Speed 16 mph    
Max Gust Speed 24 mph    
Visibility 8 miles    
Events      
Averages and records for this station are not official NWS values.
T = Trace of Precipitation, MM = Missing Value Source: NWS Daily Summary

Daily Weather History Graph

Daily Weather History Graph

Search for Another Location

Airport:

Trip Planner

Search our weather history database for the weather conditions in past years. The results will help you decide how hot, cold, wet, or windy it might be!

Date:

Astronomy

Jan. 21, 2013 Rise Set
Actual Time 7:39 AM EST 5:22 PM EST
Civil Twilight 7:09 AM EST 5:52 PM EST
Nautical Twilight 6:36 AM EST 6:26 PM EST
Astronomical Twilight 6:03 AM EST 6:59 PM EST
Moon 1:00 PM EST (1/21) 3:06 AM EST (1/21)
Length of Visible Light 10h 42m
Length of Day
9h 42m
Waxing Gibbous, 75% of the Moon is Illuminated
Jan 21
Waxing Gibbous
Jan 26
Full
Feb 3
Last Quarter
Feb 10
New
Feb 17
First Quarter

Hourly Weather History & Observations

Time (EST) Temp. Windchill Dew Point Humidity Pressure Visibility Wind Dir Wind Speed Gust Speed Precip Events Conditions
12:15 AM 19.4 °F 8.6 °F 10.4 °F 68% 30.04 in 10.0 mi West 9.2 mph - N/A   Overcast
12:35 AM 19.4 °F 10.4 °F 8.6 °F 63% 30.04 in 10.0 mi West 6.9 mph - N/A   Overcast
12:55 AM 19.4 °F 7.2 °F 8.6 °F 63% 30.03 in 10.0 mi West 11.5 mph - N/A   Overcast
1:15 AM 19.4 °F 8.6 °F 8.6 °F 63% 30.03 in 10.0 mi WSW 9.2 mph - N/A   Overcast
1:35 AM 19.4 °F 9.5 °F 8.6 °F 63% 30.03 in 10.0 mi West 8.1 mph - N/A   Overcast
1:55 AM 19.4 °F 9.5 °F 8.6 °F 63% 30.03 in 10.0 mi WSW 8.1 mph - N/A   Overcast
2:15 AM 19.4 °F 9.5 °F 8.6 °F 63% 30.02 in 10.0 mi West 8.1 mph - N/A   Overcast
2:35 AM 19.4 °F 7.9 °F 8.6 °F 63% 30.02 in 10.0 mi West 10.4 mph - N/A   Overcast
2:55 AM 19.4 °F 9.5 °F 6.8 °F 58% 30.02 in 10.0 mi WSW 8.1 mph - N/A   Overcast
3:15 AM 19.4 °F 7.9 °F 6.8 °F 58% 30.02 in 10.0 mi WSW 10.4 mph - N/A   Overcast
3:35 AM 19.4 °F 9.5 °F 8.6 °F 63% 30.00 in 10.0 mi WSW 8.1 mph - N/A   Overcast
3:55 AM 19.4 °F 8.6 °F 6.8 °F 58% 30.00 in 10.0 mi WSW 9.2 mph - N/A   Overcast
4:15 AM 19.4 °F 8.6 °F 6.8 °F 58% 29.99 in 10.0 mi West 9.2 mph - N/A   Overcast
4:35 AM 19.4 °F 9.5 °F 6.8 °F 58% 29.99 in 10.0 mi WSW 8.1 mph - N/A   Overcast
4:55 AM 19.4 °F 10.4 °F 6.8 °F 58% 29.98 in 10.0 mi WSW 6.9 mph - N/A   Overcast
5:15 AM 19.4 °F 8.6 °F 6.8 °F 58% 29.99 in 10.0 mi WSW 9.2 mph - N/A   Overcast
5:55 AM 17.6 °F 7.3 °F 6.8 °F 63% 29.98 in 10.0 mi SW 8.1 mph - N/A   Overcast
6:15 AM 17.6 °F 8.2 °F 8.6 °F 68% 29.97 in 10.0 mi SW 6.9 mph - N/A   Overcast
6:35 AM 17.6 °F 8.2 °F 8.6 °F 68% 29.97 in 10.0 mi SW 6.9 mph - N/A   Overcast
6:55 AM 17.6 °F 5.7 °F 6.8 °F 63% 29.97 in 10.0 mi WSW 10.4 mph - N/A   Overcast
7:15 AM 17.6 °F 8.2 °F 6.8 °F 63% 29.97 in 10.0 mi WSW 6.9 mph - N/A   Overcast
7:35 AM 17.6 °F 7.3 °F 6.8 °F 63% 29.97 in 10.0 mi SW 8.1 mph - N/A   Overcast
7:55 AM 17.6 °F 5.7 °F 6.8 °F 63% 29.96 in 10.0 mi SW 10.4 mph - N/A   Overcast
8:15 AM 17.6 °F 7.3 °F 6.8 °F 63% 29.96 in 10.0 mi SW 8.1 mph - N/A   Overcast
8:35 AM 17.6 °F 7.3 °F 6.8 °F 63% 29.95 in 10.0 mi SW 8.1 mph - N/A   Overcast
8:55 AM 17.6 °F 7.3 °F 6.8 °F 63% 29.95 in 10.0 mi SW 8.1 mph - N/A   Overcast
9:15 AM 17.6 °F 6.4 °F 6.8 °F 63% 29.95 in 10.0 mi SW 9.2 mph - N/A   Overcast
9:35 AM 17.6 °F 5.0 °F 6.8 °F 63% 29.95 in 10.0 mi SW 11.5 mph - N/A   Overcast
9:55 AM 17.6 °F 7.3 °F 6.8 °F 63% 29.95 in 10.0 mi SW 8.1 mph - N/A   Overcast
10:15 AM 19.4 °F 10.4 °F 8.6 °F 63% 29.95 in 10.0 mi WSW 6.9 mph - N/A   Overcast
10:35 AM 19.4 °F 8.6 °F 8.6 °F 63% 29.93 in 7.0 mi WSW 9.2 mph - N/A   Overcast
10:55 AM 17.6 °F 7.3 °F 8.6 °F 68% 29.93 in 5.0 mi WSW 8.1 mph - N/A   Overcast
11:15 AM 17.6 °F 7.3 °F 8.6 °F 68% 29.92 in 8.0 mi SW 8.1 mph - N/A   Overcast
11:35 AM 17.6 °F 6.4 °F 10.4 °F 73% 29.91 in 3.0 mi WSW 9.2 mph - N/A   Overcast
11:55 AM 17.6 °F 7.3 °F 12.2 °F 79% 29.89 in 2.0 mi West 8.1 mph - N/A   Overcast
12:15 PM 17.6 °F 5.0 °F 12.2 °F 79% 29.88 in 5.0 mi West 11.5 mph 16.1 mph N/A   Overcast
12:35 PM 17.6 °F 6.4 °F 10.4 °F 73% 29.88 in 9.0 mi West 9.2 mph 16.1 mph N/A   Overcast
12:55 PM 17.6 °F 5.7 °F 10.4 °F 73% 29.87 in 7.0 mi West 10.4 mph - N/A   Overcast
1:15 PM 19.4 °F 9.5 °F 10.4 °F 68% 29.86 in 4.0 mi West 8.1 mph - N/A   Overcast
1:35 PM 19.4 °F 8.6 °F 10.4 °F 68% 29.85 in 9.0 mi WSW 9.2 mph - N/A   Mostly Cloudy
1:55 PM 19.4 °F 9.5 °F 10.4 °F 68% 29.85 in 8.0 mi West 8.1 mph - N/A   Overcast
2:15 PM 19.4 °F 9.5 °F 10.4 °F 68% 29.85 in 7.0 mi West 8.1 mph 17.3 mph N/A   Overcast
2:35 PM 19.4 °F 7.9 °F 10.4 °F 68% 29.86 in 10.0 mi WSW 10.4 mph 18.4 mph N/A   Overcast
2:55 PM 19.4 °F 7.9 °F 10.4 °F 68% 29.86 in 10.0 mi West 10.4 mph - N/A   Mostly Cloudy
3:15 PM 21.2 °F 10.1 °F 10.4 °F 63% 29.85 in 10.0 mi SW 10.4 mph 16.1 mph N/A   Mostly Cloudy
3:35 PM 19.4 °F 5.0 °F 10.4 °F 68% 29.86 in 2.0 mi West 16.1 mph 21.9 mph N/A   Overcast
3:55 PM 17.6 °F 7.3 °F 12.2 °F 79% 29.86 in 0.8 mi West 8.1 mph 21.9 mph N/A   Overcast
4:15 PM 17.6 °F 3.7 °F 10.4 °F 73% 29.87 in 7.0 mi West 13.8 mph 18.4 mph N/A   Mostly Cloudy
4:35 PM 17.6 °F 5.7 °F 8.6 °F 68% 29.87 in 10.0 mi West 10.4 mph - N/A   Scattered Clouds
4:55 PM 17.6 °F 3.2 °F 8.6 °F 68% 29.88 in 10.0 mi West 15.0 mph 21.9 mph N/A   Mostly Cloudy
5:15 PM 17.6 °F 2.7 °F 6.8 °F 63% 29.89 in 3.0 mi West 16.1 mph 24.2 mph N/A   Overcast
5:35 PM 15.8 °F 0.9 °F 8.6 °F 73% 29.90 in 3.0 mi WSW 15.0 mph 21.9 mph N/A   Mostly Cloudy
5:55 PM 15.8 °F 0.9 °F 10.4 °F 79% 29.91 in 5.0 mi West 15.0 mph 21.9 mph N/A   Mostly Cloudy
6:15 PM 14.0 °F 0.5 °F 8.6 °F 79% 29.91 in 3.0 mi West 11.5 mph 21.9 mph N/A   Mostly Cloudy
6:35 PM 14.0 °F 0.5 °F 8.6 °F 79% 29.91 in 6.0 mi West 11.5 mph - N/A   Overcast
6:55 PM 14.0 °F -1.4 °F 8.6 °F 79% 29.91 in 1.8 mi West 15.0 mph - N/A   Overcast
7:15 PM 12.2 °F 0.7 °F 3.2 °F 67% 29.92 in 10.0 mi WSW 8.1 mph 18.4 mph N/A   Partly Cloudy
7:35 PM 12.2 °F -3.1 °F 3.2 °F 67% 29.92 in 10.0 mi West 13.8 mph 17.3 mph N/A   Clear
7:55 PM 12.2 °F -1.0 °F 3.2 °F 67% 29.92 in 10.0 mi West 10.4 mph - N/A   Clear
8:15 PM 12.2 °F -1.0 °F 3.2 °F 67% 29.92 in 10.0 mi WSW 10.4 mph 18.4 mph N/A   Clear
8:35 PM 10.4 °F -4.8 °F 1.4 °F 67% 29.92 in 10.0 mi WSW 12.7 mph 21.9 mph N/A   Clear
8:55 PM 10.4 °F -5.4 °F 1.4 °F 67% 29.92 in 10.0 mi WSW 13.8 mph 23.0 mph N/A   Clear
9:15 PM 10.4 °F -2.4 °F 1.4 °F 67% 29.92 in 10.0 mi WSW 9.2 mph 19.6 mph N/A   Clear
9:35 PM 10.4 °F -1.5 °F 1.4 °F 67% 29.93 in 10.0 mi WSW 8.1 mph 17.3 mph N/A   Clear
9:55 PM 10.4 °F -5.4 °F 1.4 °F 67% 29.93 in 10.0 mi WSW 13.8 mph 21.9 mph N/A   Scattered Clouds
10:15 PM 10.4 °F -6.0 °F 1.4 °F 67% 29.93 in 10.0 mi WSW 15.0 mph 19.6 mph N/A   Mostly Cloudy
10:35 PM 10.4 °F -6.0 °F 1.4 °F 67% 29.94 in 10.0 mi West 15.0 mph - N/A   Partly Cloudy
10:55 PM 10.4 °F -3.3 °F 1.4 °F 67% 29.93 in 10.0 mi WSW 10.4 mph - N/A   Clear
11:35 PM 8.6 °F -6.3 °F 1.4 °F 73% 29.93 in 10.0 mi WSW 11.5 mph - N/A   Clear
11:55 PM 8.6 °F -6.3 °F 1.4 °F 73% 29.94 in 10.0 mi WSW 11.5 mph 17.3 mph N/A   Scattered Clouds